Location: Asheville, NC
(35.6000°N, 82.5500°W)
Time: 16:40:10
(UTC-05:00)

ISS - Pass Details

Date: 14 February 2018
Orbit: 403 x 407 km, 51.6° (Epoch: 19 February)

Event Time Altitude Azimuth Distance (km) Brightness Sun altitude
Rises 18:37:10 0° 308° (NW) 2,313 0.7 -6.0°
Reaches altitude 10° 18:39:17 10° 303° (WNW) 1,451 -0.3 -6.4°
Maximum altitude 18:42:28 55° 225° (SW) 487 -3.1 -7.0°
Drops below altitude 10° 18:45:38 10° 147° (SSE) 1,444 -1.3 -7.6°
Sets 18:47:44 0° 142° (SE) 2,300 -0.3 -8.1°
